Location: De Greiden
(52.9496°N, 5.9137°E)
Time: 22:42:34
(UTC+00:00)

Cosmos 1602 Rocket - Pass Details

Date: 24 January 2021
Orbit: 604 x 632 km, 82.5° (Epoch: 01 March)

Event Time Altitude Azimuth Distance (km) Brightness Sun altitude
Rises 17:57:53 0° 178° (S) 2,859 7.1 -16.5°
Reaches altitude 10° 18:00:06 10° 175° (S) 1,963 6.2 -16.8°
Maximum altitude 18:04:22 59° 96° (E) 712 3.5 -17.4°
Enters shadow 18:08:32 11° 18° (NNE) 1,926 5.8 -18.0°
